Simultaneous Nadir Overpasses (SNOs) Predictions

Prediction of SNOs between GOES-15 and METOP-A Satellite Orbit:

Table of predicted SNOs for the next 14.0 days since TLE Epoch: 3/1/2019
Index Date Time (GOES-15) GOES-15 Lat,Lon METOP-A Lat,Lon Distance(km) Time Diff (sec)
1 03/02/2019 17:37:42 0.02,-128.35 -0.39,-126.47 214.58 80
2 03/04/2019 05:56:38 -0.01,-128.39 -0.62,-131.07 305.80 80
3 03/05/2019 05:33:16 -0.01,-128.39 0.48,-126.07 263.85 80
4 03/06/2019 17:52:03 0.01,-128.37 0.53,-130.63 258.47 80
5 03/07/2019 17:34:01 0.01,-128.37 -0.58,-125.63 311.37 80
6 03/09/2019 05:52:57 -0.01,-128.40 -0.43,-130.24 209.23 80
7 03/10/2019 05:29:35 -0.01,-128.40 0.67,-125.24 359.97 80
8 03/11/2019 17:48:22 0.01,-128.37 0.33,-129.80 163.57 80
9 03/12/2019 17:30:19 0.01,-128.37 -0.77,-124.80 405.41 80
10 03/14/2019 05:49:16 -0.00,-128.39 -0.24,-129.40 116.39 80
11 03/15/2019 05:25:53 0.00,-128.38 0.86,-124.41 451.75 80




NCC Satellite Simultaneous Nadir Overpasses (SNOs) Prediction Service
